This demonstration page uses our WeatherBlox Daily Observations layout. Learn more.

Left ArrowRight Arrow

Hourly Observations for June 15, 2016

Temp ( °F °C ) Dew Point ( °F °C ) Humidity (%) Winds ( mph kmh ) Pressure ( in mb ) Visibility ( mi km ) Precip ( " mm )
12:52 am 00:52 Clear 78 25.6 71 21.7 79 79 S 7 11 29.79 1009 10 16 0.00 0.00
1:52 am 01:52 Clear 77 25 71 21.7 82 82 SSW 7 11 29.80 1009 10 16 0.00 0.00
2:52 am 02:52 Clear 77 25 72 22.2 85 85 SSW 9 15 29.79 1009 10 16 0.00 0.00
3:52 am 03:52 Mostly Clear 78 25.6 73 22.8 85 85 SW 12 19 29.79 1009 10 16 0.00 0.00
4:52 am 04:52 Clear 78 25.6 73 22.8 85 85 SSW 13 20 29.80 1009 10 16 0.00 0.00
5:39 am 05:39 Mostly Clear with Nearby Thunderstorms 78 25.6 73 22.8 85 85 SW 10 17 29.80 1009 10 16 0.00 0.00
5:52 am 05:52 Mostly Cloudy 78 25.6 72 22.2 82 82 undefined N/A 29.84 1011 10 16 0.00 0.00
6:06 am 06:06 Cloudy 73 23 64 18 74 74 NNE 15 24 29.88 1012 10 16 0.00 0.00
6:40 am 06:40 Cloudy 72 22 64 18 78 78 NE 10 17 29.91 1013 10 16 0.00 0.00
6:52 am 06:52 Cloudy 71 21.7 65 18.3 81 81 ENE 7 11 29.90 1012 10 16 0.00 0.00
7:03 am 07:03 Cloudy with Strong Thunderstorms 70 21 64 18 83 83 NNE 8 13 29.91 1013 2 3 0.00 0.00
7:06 am 07:06 Cloudy with Strong Thunderstorms 70 21 66 19 88 88 NE 9 15 29.91 1013 1 1 0.00 0.00
7:16 am 07:16 Cloudy with Strong Thunderstorms 73 23 64 18 74 74 VRB 6 9 29.88 1012 1 1 0.00 0.00
7:19 am 07:19 Cloudy with Thunderstorms 74 23.3 63 17.2 69 69 NE 14 22 29.88 1012 1 2 0.63 16.00
7:22 am 07:22 Mostly Cloudy with Thunderstorms 73 23 64 18 74 74 NE 8 13 29.88 1012 4 6 0.00 0.00
7:40 am 07:40 Partly Cloudy with Nearby Thunderstorms 71 21.7 64 17.8 79 79 ENE 8 13 29.91 1013 10 16 0.63 16.00
7:52 am 07:52 Partly Cloudy with Nearby Thunderstorms 74 23.3 65 18.3 74 74 ESE 3 6 29.89 1012 10 16 0.63 16.00
8:14 am 08:14 Mostly Cloudy 73 23 68 20 83 83 S 6 9 29.88 1012 10 16 0.00 0.00
8:21 am 08:21 Mostly Cloudy 75 23.9 69 20.6 82 82 S 6 9 29.88 1012 10 16 0.00 0.00
8:43 am 08:43 Cloudy 75 23.9 69 20.6 82 82 S 3 6 29.88 1012 10 16 0.00 0.00
8:52 am 08:52 Cloudy 76 24.4 69 20.6 79 79 S 7 11 29.90 1012 10 16 0.00 0.00
9:37 am 09:37 Partly Cloudy 79 26.1 71 21.7 77 77 S 6 9 29.88 1012 10 16 0.00 0.00
9:52 am 09:52 Sunny 81 27.2 72 22.2 74 74 S 7 11 29.88 1012 10 16 0.00 0.00
10:52 am 10:52 Sunny 85 29.4 74 23.3 70 70 SW 12 19 29.88 1012 10 16 0.00 0.00
11:52 am 11:52 Sunny 88 31.1 76 24.4 68 68 WSW 10 17 29.88 1012 10 16 0.00 0.00
12:52 pm 12:52 Partly Cloudy 90 32.2 75 23.9 62 62 W 9 15 29.87 1012 10 16 0.00 0.00
1:52 pm 13:52 Sunny 93 33.9 70 21.1 47 47 W 8 13 29.86 1011 10 16 0.00 0.00
2:52 pm 14:52 Mostly Sunny 93 33.9 70 21.1 47 47 WSW 8 13 29.85 1011 10 16 0.00 0.00
3:52 pm 15:52 Mostly Sunny 94 34.4 69 20.6 44 44 WSW 8 13 29.84 1011 10 16 0.00 0.00
4:52 pm 16:52 Sunny 94 34.4 69 20.6 44 44 W 12 19 29.83 1010 10 16 0.00 0.00
5:52 pm 17:52 Sunny 93 33.9 69 20.6 46 46 W 6 9 29.81 1010 10 16 0.00 0.00
6:52 pm 18:52 Sunny 92 33.3 71 21.7 51 51 WSW 6 9 29.81 1009 10 16 0.00 0.00
7:52 pm 19:52 Sunny 90 32.2 73 22.8 58 58 WSW 3 6 29.83 1010 10 16 0.00 0.00
8:52 pm 20:52 Clear 84 28.9 74 23.3 72 72 Calm 29.84 1011 10 16 0.00 0.00
9:52 pm 21:52 Clear 82 27.8 74 23.3 77 77 SSW 6 9 29.86 1011 10 16 0.00 0.00
10:52 pm 22:52 Clear 82 27.8 73 22.8 74 74 WSW 7 11 29.87 1012 10 16 0.00 0.00
11:52 pm 23:52 Clear 81 27.2 74 23.3 79 79 SW 7 11 29.89 1012 10 16 0.00 0.00

Powered by AerisWeather